Flag for Mozambique Weather past 2 weeks in Beira, Mozambique

Now
75 °F

Scattered clouds.


Feels Like: 74 °F
Forecast: 68 / 72 °F
Wind: 10 mph from Southeast

Location: Beira Airport

Current Time: Jul 28, 2014 at 9:04:17 AM

Latest Report: Jul 28, 2014 at 8:00 AM


Visibility: N/A

Pressure: 30.21 "Hg

Humidity: 94%

Dew point: 73 °F

Location of BeiraLocation

Historic Weather in Beira — Graph

°F

Beira temperature yesterday

Maximum temperature yesterday: 81 °F (at 11:00 AM)
Minimum temperature yesterday: 68 °F (at 1:00 AM)
Average temperature yesterday: 74 °F

Past Weeks' High & Low Weather Summary

 TemperatureHumidityPressure
High88 °F (Jul 18, 3:00 PM)100% (Jul 17, 5:00 AM)30.30 "Hg (Jul 17, 5:00 AM)
Low59 °F (Jul 24, 6:00 AM)31% (Jul 18, 3:00 PM)29.89 "Hg (Jul 18, 3:00 PM)
Average72 °F80%30.10 "Hg
* Reported Jul 13 10:00 PM — Jul 28 8:00 AM, Beira, Weather by CustomWeather, © 2014

Note: Actual official high and low records may vary slightly from our data, if they occured in-between our weather recording intervals... More about our weather records

Advertising

Beira weather history for previous 24 hours

 ConditionsComfort  
Time TempWeatherWind HumidityBarometerVisibility
8:00 AM
Jul 28
75 °FScattered clouds.10 mph94%30.21 "HgN/A
7:00 AM64 °FScattered clouds.7 mph100%30.21 "HgN/A
6:00 AM64 °FPassing clouds.3 mph100%30.18 "HgN/A
10:00 PM
Jul 27
72 °FPassing clouds.7 mph94%30.15 "HgN/A
9:00 PM72 °FPassing clouds.10 mph94%30.15 "HgN/A
8:00 PM72 °FClear.13 mph94%30.15 "Hg10 mi
7:00 PM73 °FClear.10 mph94%30.12 "Hg10 mi
6:00 PM73 °FClear.12 mph94%30.12 "Hg10 mi
5:00 PM75 °FPassing clouds.13 mph83%30.09 "HgN/A
3:00 PM77 °FPassing clouds.17 mph83%30.07 "HgN/A
2:00 PM79 °FPassing clouds.14 mph84%30.07 "HgN/A
1:00 PM77 °FPassing clouds.10 mph83%30.09 "HgN/A
12:00 PM79 °FPassing clouds.7 mph79%30.12 "HgN/A
11:00 AM81 °FPassing clouds.3 mph66%30.12 "HgN/A
10:00 AM73 °FScattered clouds.3 mph89%30.12 "HgN/A
9:00 AM72 °FPartly sunny.6 mph94%30.12 "HgN/A
Weather by CustomWeather, © 2014

See weather overviewHow to use our weather pages